Location: Rehoboth Beach
(38.7438°N, 75.1341°W)
Time: 03:20:55
(UTC-04:00)

Cosmos 1452 Rocket - Visible Passes

Search period start: 30 July 2016 00:00
Search period end: 09 August 2016 00:00
Orbit: 767 x 776 km, 74.1° (Epoch: 29 July)

Date Brightness Start Highest point End Pass type
(mag) Time Alt. Az. Time Alt. Az. Time Alt. Az.
30 Jul 4.7 21:28:32 10° SW 21:33:34 46° WNW 21:38:39 10° N visible
31 Jul 3.7 20:52:14 10° SSW 20:57:30 78° WNW 21:02:48 10° NNE visible
01 Aug 6.5 22:00:49 10° W 22:04:06 17° WNW 22:07:26 10° NNW visible
02 Aug 7.1 05:06:20 10° NNE 05:08:29 12° NE 05:10:37 10° ENE visible
02 Aug 5.9 21:23:25 10° WSW 21:27:49 26° WNW 21:32:15 10° N visible
03 Aug 5.0 20:46:38 10° SW 20:51:38 43° WNW 20:56:40 10° N visible
04 Aug 5.6 05:34:23 10° N 05:39:11 34° ENE 05:43:56 10° SE visible
05 Aug 6.4 04:58:58 10° N 05:02:56 21° ENE 05:06:53 10° ESE visible
05 Aug 6.8 21:19:04 10° W 21:22:12 16° WNW 21:25:21 10° NNW visible
06 Aug 6.9 04:24:09 10° NNE 04:26:34 13° NE 04:29:00 10° E visible
06 Aug 6.2 20:41:35 10° WSW 20:45:53 25° WNW 20:50:14 10° N visible
07 Aug 4.3 05:28:07 10° N 05:33:22 60° ENE 05:38:33 10° SSE visible
08 Aug 5.3 04:52:23 10° N 04:57:15 36° ENE 05:02:04 10° SE visible
